Current weather by "City, St" or "zip code"  
 

Current Conditions: Lompoc, Vandenberg Air Force Base, CA

Overcast


54.0 F

Last Updated on Jul 2 2022, 10:58 pm PDT
Humidity: 92%
Wind Speed: N 16.1 mph
Barometer 30.01 in
Dewpoint: 51.8 F
Visibility: 10.00 mi
Precip: --
Heat Index: NA
Wind Chill: 50 F
Current conditions at:

Lompoc, Vandenberg Air Force Base, CA (KVBG)

Lat: 34.72944 Lon: 120.57667

Local Radar Image active severe weather and emergency alerts image image weather storm and storm spotter reports image weather observation monitoring service image
Local
Radar
Active
Alerts
Storm Reports Obs
Monitoring

Sign-up For Email & Text Message Weather Alert Notification Services



Advertise Here

Observation History for Lompoc, Vandenberg Air Force Base, CA


Time Wind
(mph)
Vis
(mi)
Weather Precip (in) Temperature (F) Relative
Humidity
Wind
Chill
(F)
Heat
Index
(F)
Pressure
Air Dwpt altimeter
(in)
sea level
(mb)
Rmks
10:58 pm PDT N 16.1 10.00 Overcast -- 54.0 51.8 92% 50 NA 30.01 1016.5
9:58 pm PDT N 13.8 9.00 Overcast -- 55.0 51.8 91% 51 NA 30.00 1016.2
8:58 pm PDT N 16.1 G 23.0 8.00 Overcast -- 54.0 52.0 92% 50 NA 29.99 1015.9
7:58 pm PDT N 17.3 7.00 Mostly Cloudy -- 55.0 52.2 89% 51 NA 29.99 1015.9
6:58 pm PDT N 17.3 G 24.2 7.00 A Few Clouds -- 56.0 52.2 86% 52 NA 29.98 1015.5
5:58 pm PDT N 20.7 G 27.6 9.00 Mostly Cloudy and Breezy -- 58.0 52.2 82% 54 NA 29.98 1015.5
4:58 pm PDT N 21.9 G 27.6 10.00 A Few Clouds and Breezy -- 61.0 52.5 75% 58 NA 30.00 1016.2
3:58 pm PDT N 17.3 10.00 Mostly Cloudy -- 61.0 52.2 73% 58 NA 30.00 1016.2
2:58 pm PDT N 16.1 G 23.0 10.00 Mostly Cloudy -- 62.0 52.2 71% 60 NA 30.01 1016.5
1:58 pm PDT NW 12.7 G 21.9 10.00 Mostly Cloudy -- 61.0 51.8 72% 59 NA 30.02 1016.8

Regional Weather Observation


Lompoc, Vandenberg Air Force Base, CA (KVBG)

Overcast
54.0 F

Oceano County Airport, CA (KL52)

Fair with Haze
63.0 F

Lompoc, Lompoc Airport, CA (KLPC)

Fair
65.0 F

San Luis Obispo, San Luis Obispo County-Mc Chesney Field, CA (KSBP)

Fair and Breezy
69.0 F

Santa Ynez, Santa Ynez Airport, CA (KIZA)

Fair
72.0 F

Paso Robles Municipal Airport, CA (KPRB)

Fair
79.0 F

Advertise Here


Advertise Here